Horntown, VA

8:27 PM EDT on August 26, 2016 (GMT -0400)
Wallops Flight Facility

Weather History for KWAL - November, 2012

Change the Weather History Date:

Friday, November 30, 2012

  Actual Average Record
Temperature  
Mean Temperature 44 °F 45 °F  
Max Temperature 55 °F 54 °F 74 °F (1991)
Min Temperature 32 °F 36 °F 20 °F (1989)
Degree Days  
Heating Degree Days 21    
Month to date heating degree days 520  
Since 1 July heating degree days 688  
Cooling Degree Days 0    
Month to date cooling degree days 0  
Year to date cooling degree days 1616  
Moisture  
Dew Point 35 °F    
Average Humidity 69    
Maximum Humidity 83    
Minimum Humidity 54    
Precipitation  
Precipitation 0.00 in 0.10 in 0.96 in (2008)
Month to date precipitation 0.56 2.87  
Year to date precipitation 45.18 37.41  
Sea Level Pressure  
Sea Level Pressure 30.36 in    
Wind  
Wind Speed 5 mph (SW)    
Max Wind Speed 13 mph    
Max Gust Speed 16 mph    
Visibility 5 miles    
Events      
T = Trace of Precipitation, MM = Missing Value Source: NWS Daily Summary

Daily Weather History Graph

Daily Weather History Graph

Search for Another Location

Airport or City:

Trip Planner

Search our weather history database for the weather conditions in past years. The results will help you decide how hot, cold, wet, or windy it might be!

Date:

Astronomy

Nov. 30, 2012 Rise Set
Actual Time 6:58 AM EST 4:42 PM EST
Civil Twilight 6:29 AM EST 5:11 PM EST
Nautical Twilight 5:56 AM EST 5:44 PM EST
Astronomical Twilight 5:25 AM EST 6:16 PM EST
Moon 6:35 PM EST (11/30) 8:28 AM EST (11/30)
Length of Visible Light 10h 42m
Length of Day
9h 44m
Waning Gibbous, 96% of the Moon is Illuminated
Nov 30
Waning Gibbous
Dec 6
Last Quarter
Dec 13
New
Dec 20
First Quarter
Dec 28
Full

Hourly Weather History & Observations

Time (EST) Temp. Windchill Dew Point Humidity Pressure Visibility Wind Dir Wind Speed Gust Speed Precip Events Conditions
12:54 AM 42.1 °F 37.1 °F 32.0 °F 67% 30.37 in - WSW 8.1 mph - N/A   Clear
1:54 AM 39.0 °F 34.0 °F 30.0 °F 70% 30.37 in - WSW 6.9 mph - N/A   Clear
2:54 AM 37.9 °F 32.1 °F 30.0 °F 73% 30.37 in - SW 8.1 mph - N/A   Clear
3:54 AM 41.0 °F 35.8 °F 28.9 °F 62% 30.36 in - West 8.1 mph - N/A   Clear
4:54 AM 35.1 °F 30.1 °F 26.1 °F 70% 30.37 in - SW 5.8 mph - N/A   Clear
5:54 AM 37.0 °F 32.4 °F 27.0 °F 67% 30.37 in - SW 5.8 mph - N/A   Clear
6:54 AM 35.1 °F 31.0 °F 26.1 °F 70% 30.38 in - SSW 4.6 mph - N/A   Clear
7:54 AM 39.0 °F - 30.0 °F 70% 30.38 in - Calm Calm - N/A   Overcast
8:54 AM 44.1 °F 40.8 °F 36.0 °F 73% 30.39 in - SSW 5.8 mph - N/A   Mostly Cloudy
9:54 AM 48.9 °F - 37.0 °F 64% 30.40 in - SW 8.1 mph - N/A   Overcast
10:54 AM 53.1 °F - 37.9 °F 57% 30.38 in 10.0 mi South 8.1 mph - N/A   Overcast
11:54 AM 54.0 °F - 37.9 °F 55% 30.35 in 10.0 mi SSW 10.4 mph - N/A   Overcast
12:54 PM 55.0 °F - 39.0 °F 55% 30.33 in 10.0 mi South 10.4 mph - N/A   Overcast
1:54 PM 54.0 °F - 39.0 °F 57% 30.31 in - SSW 10.4 mph - N/A   Overcast
2:54 PM 53.1 °F - 39.0 °F 59% 30.31 in 10.0 mi SSW 10.4 mph - N/A   Overcast
3:54 PM 51.1 °F - 37.9 °F 61% 30.32 in 10.0 mi SSW 6.9 mph - N/A   Overcast
4:54 PM 48.0 °F - 37.0 °F 66% 30.33 in 9.0 mi WSW 3.5 mph - N/A   Clear
5:54 PM 45.0 °F - 36.0 °F 71% 30.34 in 10.0 mi Calm Calm - N/A   Clear
6:54 PM 43.0 °F - 36.0 °F 76% 30.34 in 9.0 mi Calm Calm - N/A   Clear
7:54 PM 43.0 °F - 37.0 °F 80% 30.35 in 5.0 mi Calm Calm - N/A   Haze
8:54 PM 42.1 °F - 37.0 °F 82% 30.35 in 4.0 mi Calm Calm - N/A   Haze
9:03 PM 41.0 °F - 37.0 °F 86% 30.36 in 2.0 mi Calm Calm - N/A   Clear
9:10 PM 42.1 °F - 37.9 °F 85% 30.36 in 1.8 mi Calm Calm - N/A   Clear
9:14 PM 41.0 °F - 37.0 °F 86% 30.36 in 3.0 mi Calm Calm - N/A   Clear
9:54 PM 45.0 °F - 39.9 °F 82% 30.36 in 4.0 mi Calm Calm - N/A   Haze
10:13 PM 44.1 °F - 39.0 °F 82% 30.36 in 2.0 mi Calm Calm - N/A   Haze
10:21 PM 45.0 °F - 39.9 °F 82% 30.36 in 1.5 mi Calm Calm - N/A   Haze
10:31 PM 43.0 °F - 39.0 °F 86% 30.36 in 0.8 mi Calm Calm - N/A   Clear
10:33 PM 43.0 °F - 37.9 °F 82% 30.36 in 0.5 mi Calm Calm - N/A   Haze
10:54 PM 44.1 °F - 39.0 °F 82% 30.35 in 0.2 mi Calm Calm - N/A   Haze
11:39 PM 43.0 °F - 39.0 °F 86% 30.37 in 1.0 mi Calm Calm - N/A   Mist
11:43 PM 43.0 °F - 39.0 °F 86% 30.37 in 1.2 mi Calm Calm - N/A   Clear
11:54 PM 39.9 °F - 36.0 °F 86% 30.35 in 1.8 mi Calm Calm - N/A   Clear
11:59 PM 37.9 °F - 35.1 °F 89% 30.36 in 0.8 mi Calm Calm - N/A   Clear